Regional Weather Roundup
Issued by NWS

Home | Current Version | Previous Version | Graphics & Text | Print | Product List | Glossary On
Versions: 1 2 3 4 5 6 7 8 9 10 11 12 13 14 15 16 17 18 19 20 21 22 23 24 25 26 27 28 29 30 31 32 33 34 35 36 37 38 39 40 41 42 43 44 45 46 47 48 49 50
851
ASUS44 KLIX 230505
RWRLA
LOUISIANA WEATHER ROUNDUP
NATIONAL WEATHER SERVICE NEW ORLEANS LA
1100 PM CST SAT NOV 22 2014

NOTE: "FAIR" INDICATES FEW OR NO CLOUDS BELOW 12,000 FEET WITH NO
      SIGNIFICANT WEATHER AND/OR OBSTRUCTIONS TO VISIBILITY.
      SKY/WX - SKY CONDITION AND SIGNIFICANT WEATHER.
      TMP - AIR TEMPERATURE.    DP   - DEWPOINT TEMPERATURE.
      RH  - RELATIVE HUMIDITY.  PRES - PRESSURE.
      HX  - HEAT INDEX.         WCI  - WIND CHILL INDEX.

*  THESE STATIONS ARE NOT NWS OR FAA STATIONS AND ARE NOT UNDER
   NWS QUALITY CONTROL.

LAZ040-048-061>063-065-066-069-230600-
SOUTHEAST LOUISIANA

CITY           SKY/WX    TMP DP  RH WIND       PRES   REMARKS
N.O. AUDUBON     N/A     63  61  94 MISG        N/A
N.O. INTL ARPT CLOUDY    62  60  93 E14G20    29.92F FOG
N.O. LAKEFRONT CLOUDY    62  59  90 E18       29.93F
N.O. DOWNTOWN* CLOUDY    61  55  82 E8        29.92F
SLIDELL        CLOUDY    65  60  84 E8        29.94S
BATON ROUGE    CLOUDY    64  61  90 E16       29.88F
BOOTHVILLE     CLOUDY    64  64 100 E8        29.92F
BELLE CHASSE   CLOUDY    64  60  87 NE9       29.91F
BOGALUSA*        N/A     65  59  83 E7        29.97S
NEW ROADS*     CLOUDY    64  60  90 E7        29.88F
GONZALES*      CLOUDY    63  63 100 E6        29.87F
HAMMOND*       CLOUDY    66  61  82 SE10      29.94F
HOUMA*         CLOUDY    65  64  95 E14       29.87F
PORT FOURCHON* PTCLDY    68  66  94 E15G22    29.89F

$$

LAZ041-044-053-054-230600-
SOUTHWEST LOUISIANA

CITY           SKY/WX    TMP DP  RH WIND       PRES   REMARKS
LAKE CHARLES   RAIN      64  63  96 SE16      29.82F FOG
LAFAYETTE      CLOUDY    65  61  87 VRB3      29.86F
PATTERSON      CLOUDY    66  64  94 E14G20    29.85F
SALT POINT       N/A     68  65  90 E9        29.83F
NEW IBERIA     CLOUDY    67  63  87 E13       29.86F
CHENAULT AIRPK RAIN      64  64  98 SE15      29.84F

$$

LAZ027-028-230600-
CENTRAL LOUISIANA

CITY           SKY/WX    TMP DP  RH WIND       PRES   REMARKS
FORT POLK      LGT RAIN  63  63 100 SE15G21   29.80F FOG
ALEXANDRIA INT LGT RAIN  63  61  93 SE12      29.84F
ALEXANDRIA     LGT RAIN  64  60  87 SE9       29.86F

$$

LAZ001-002-230600-
NORTHWEST LOUISIANA

CITY           SKY/WX    TMP DP  RH WIND       PRES   REMARKS
SHREVEPORT     RAIN      62  60  93 SE9       29.79F FOG
BARKSDALE AFB  LGT RAIN  61  61 100 SE9       29.80F
DTN SHREVEPORT LGT RAIN  61  59  93 E7        29.80F

$$

LAZ014-016-230600-
NORTHEAST LOUISIANA

CITY           SKY/WX    TMP DP  RH WIND       PRES   REMARKS
MONROE         LGT RAIN  62  55  77 VRB5      29.88F
TALLULAH       PTCLDY    61  54  77 SE14G21   29.90F

$$




USA.gov is the U.S. government's official web portal to all federal, state and local government web resources and services.